| time (UTC) | temp F | wind direction | speed MPH | gust MPH | rain 1hr in | rain 24hr in | rain mn in | humidity % | barometer mb |
| 20260505052922 | 59 | 220 | 0.0 | 0.0 | 0.00 | 0.00 | 0.00 | 72 | 1008.5 |
| 20260505052421 | 59 | 220 | 0.0 | 0.0 | 0.00 | 0.00 | 0.00 | 72 | 1008.5 |
| 20260505051922 | 59 | 220 | 0.0 | 0.0 | 0.00 | 0.00 | 0.00 | 71 | 1008.5 |
| 20260505051418 | 60 | 220 | 0.0 | 0.0 | 0.00 | 0.00 | 0.00 | 70 | 1008.5 |
| 20260505050920 | 60 | 220 | 0.0 | 0.0 | 0.00 | 0.00 | 0.00 | 70 | 1008.5 |
| 20260505050419 | 60 | 220 | 0.0 | 0.0 | 0.00 | 0.00 | 0.00 | 69 | 1008.5 |
| 20260505041418 | 62 | 220 | 0.0 | 3.0 | 0.00 | 0.00 | 0.00 | 64 | 1008.8 |
| 20260505040917 | 63 | 220 | 2.0 | 3.0 | 0.00 | 0.00 | 0.00 | 64 | 1008.8 |
| 20260505040417 | 62 | 221 | 0.0 | 2.0 | 0.00 | 0.00 | 0.00 | 64 | 1008.8 |
| 20260505035917 | 62 | 227 | 1.0 | 2.0 | 0.00 | 0.00 | 0.00 | 64 | 1008.9 |
| 20260505035417 | 62 | 227 | 1.0 | 2.0 | 0.00 | 0.00 | 0.00 | 64 | 1008.7 |
| 20260505034918 | 62 | 224 | 0.0 | 2.0 | 0.00 | 0.00 | 0.00 | 63 | 1008.6 |
| 20260505034416 | 62 | 223 | 0.0 | 3.0 | 0.00 | 0.00 | 0.00 | 63 | 1008.8 |
| 20260505033917 | 62 | 223 | 1.0 | 3.0 | 0.00 | 0.00 | 0.00 | 63 | 1008.7 |
| 20260505033417 | 62 | 224 | 0.0 | 2.0 | 0.00 | 0.00 | 0.00 | 63 | 1008.8 |
| 20260505033156 | 63 | 224 | 0.0 | 2.0 | 0.00 | 0.00 | 0.00 | 62 | 1008.7 |
| 20260505032655 | 63 | 224 | 0.0 | 2.0 | 0.00 | 0.00 | 0.00 | 62 | 1008.8 |
| 20260505031918 | 63 | 226 | 0.0 | 2.0 | 0.00 | 0.00 | 0.00 | 62 | 1008.8 |
| 20260505031417 | 63 | 221 | 0.0 | 2.0 | 0.00 | 0.00 | 0.00 | 61 | 1008.7 |
| 20260505030915 | 63 | 221 | 0.0 | 2.0 | 0.00 | 0.00 | 0.00 | 61 | 1008.7 |
| 20260505030416 | 63 | 221 | 0.0 | 1.0 | 0.00 | 0.00 | 0.00 | 61 | 1008.6 |
| 20260505025918 | 63 | 221 | 0.0 | 1.0 | 0.00 | 0.00 | 0.00 | 60 | 1008.7 |
| 20260505025657 | 63 | 221 | 0.0 | 1.0 | 0.00 | 0.00 | 0.00 | 60 | 1008.7 |
| 20260505024915 | 64 | 221 | 0.0 | 1.0 | 0.00 | 0.00 | 0.00 | 59 | 1008.6 |
| 20260505024415 | 64 | 221 | 0.0 | 1.0 | 0.00 | 0.00 | 0.00 | 58 | 1008.6 |
| 20260505023918 | 64 | 221 | 0.0 | 1.0 | 0.00 | 0.00 | 0.00 | 57 | 1008.5 |
| 20260505023416 | 65 | 221 | 0.0 | 2.0 | 0.00 | 0.00 | 0.00 | 56 | 1008.6 |
| 20260505022915 | 65 | 221 | 0.0 | 2.0 | 0.00 | 0.00 | 0.00 | 56 | 1008.6 |
| 20260505022416 | 65 | 223 | 0.0 | 1.0 | 0.00 | 0.00 | 0.00 | 55 | 1008.6 |
| 20260505021917 | 66 | 223 | 0.0 | 4.0 | 0.00 | 0.00 | 0.00 | 55 | 1008.5 |
| 20260505021657 | 66 | 223 | 0.0 | 4.0 | 0.00 | 0.00 | 0.00 | 54 | 1008.5 |
| 20260505020915 | 66 | 213 | 0.0 | 3.0 | 0.00 | 0.00 | 0.00 | 54 | 1008.6 |
| 20260505020414 | 66 | 212 | 0.0 | 3.0 | 0.00 | 0.00 | 0.00 | 54 | 1008.5 |
| 20260505020154 | 66 | 269 | 0.0 | 4.0 | 0.00 | 0.00 | 0.00 | 54 | 1008.5 |
| 20260505015416 | 65 | 216 | 1.0 | 4.0 | 0.00 | 0.00 | 0.00 | 56 | 1008.4 |
| 20260505014915 | 65 | 185 | 0.0 | 1.0 | 0.00 | 0.00 | 0.00 | 56 | 1008.3 |
| 20260505014415 | 66 | 185 | 0.0 | 1.0 | 0.00 | 0.00 | 0.00 | 55 | 1008.3 |
| 20260505013914 | 66 | 185 | 0.0 | 1.0 | 0.00 | 0.00 | 0.00 | 54 | 1008.4 |
| 20260505013414 | 66 | 185 | 0.0 | 1.0 | 0.00 | 0.00 | 0.00 | 54 | 1008.2 |
| 20260505012916 | 66 | 185 | 0.0 | 1.0 | 0.00 | 0.00 | 0.00 | 54 | 1008.3 |
| 20260505012414 | 67 | 185 | 0.0 | 1.0 | 0.00 | 0.00 | 0.00 | 54 | 1008.2 |
| 20260505012157 | 67 | 185 | 0.0 | 0.0 | 0.00 | 0.00 | 0.00 | 53 | 1008.0 |
| 20260505011415 | 67 | 185 | 0.0 | 1.0 | 0.00 | 0.00 | 0.00 | 52 | 1007.8 |
| 20260505010914 | 68 | 185 | 0.0 | 2.0 | 0.00 | 0.00 | 0.00 | 51 | 1008.0 |
| 20260505010413 | 68 | 185 | 1.0 | 2.0 | 0.00 | 0.00 | 0.00 | 50 | 1007.9 |
| 20260505005913 | 68 | 221 | 0.0 | 2.0 | 0.00 | 0.00 | 0.00 | 51 | 1007.8 |
| 20260505005653 | 69 | 221 | 0.0 | 2.0 | 0.00 | 0.00 | 0.00 | 50 | 1007.8 |
| 20260505005155 | 69 | 221 | 0.0 | 1.0 | 0.00 | 0.00 | 0.00 | 50 | 1007.8 |
| 20260505004412 | 69 | 221 | 0.0 | 1.0 | 0.00 | 0.00 | 0.00 | 50 | 1007.9 |
| 20260505003914 | 69 | 220 | 0.0 | 2.0 | 0.00 | 0.00 | 0.00 | 49 | 1007.8 |
| 20260505003414 | 69 | 221 | 0.0 | 3.0 | 0.00 | 0.00 | 0.00 | 49 | 1007.8 |
| 20260505003153 | 69 | 220 | 1.0 | 3.0 | 0.00 | 0.00 | 0.00 | 48 | 1007.7 |
| 20260505002412 | 69 | 219 | 0.0 | 1.0 | 0.00 | 0.00 | 0.00 | 49 | 1007.7 |
| 20260505001914 | 69 | 219 | 0.0 | 2.0 | 0.00 | 0.00 | 0.00 | 49 | 1007.7 |
| 20260505001413 | 70 | 219 | 0.0 | 3.0 | 0.00 | 0.00 | 0.00 | 48 | 1007.7 |
| 20260505000909 | 70 | 219 | 1.0 | 4.0 | 0.00 | 0.00 | 0.00 | 48 | 1007.6 |
| 20260505000409 | 71 | 228 | 0.0 | 4.0 | 0.00 | 0.00 | 0.00 | 46 | 1007.7 |
| 20260505000148 | 71 | 223 | 1.0 | 4.0 | 0.00 | 0.00 | 0.00 | 46 | 1007.6 |
| 20260504235408 | 71 | 206 | 1.0 | 2.0 | 0.00 | 0.00 | 0.00 | 46 | 1007.7 |
| 20260504234908 | 71 | 213 | 0.0 | 5.0 | 0.00 | 0.00 | 0.00 | 46 | 1007.6 |
| 20260504234408 | 72 | 212 | 2.0 | 5.0 | 0.00 | 0.00 | 0.00 | 45 | 1007.5 |
| 20260504233906 | 72 | 266 | 1.0 | 5.0 | 0.00 | 0.00 | 0.00 | 45 | 1007.6 |
| 20260504233403 | 72 | 258 | 2.0 | 5.0 | 0.00 | 0.00 | 0.00 | 44 | 1007.5 |
| 20260504232904 | 72 | 216 | 1.0 | 4.0 | 0.00 | 0.00 | 0.00 | 44 | 1007.5 |
| 20260504232403 | 73 | 274 | 1.0 | 3.0 | 0.00 | 0.00 | 0.00 | 43 | 1007.5 |
| 20260504231903 | 73 | 226 | 2.0 | 5.0 | 0.00 | 0.00 | 0.00 | 43 | 1007.5 |
| 20260504231403 | 73 | 220 | 1.0 | 5.0 | 0.00 | 0.00 | 0.00 | 42 | 1007.4 |
| 20260504230901 | 73 | 219 | 1.0 | 6.0 | 0.00 | 0.00 | 0.00 | 42 | 1007.5 |
| 20260504230405 | 73 | 117 | 2.0 | 7.0 | 0.00 | 0.00 | 0.00 | 41 | 1007.4 |
| 20260504225854 | 73 | 213 | 3.0 | 7.0 | 0.00 | 0.00 | 0.00 | 41 | 1007.4 |
| 20260504225354 | 73 | 58 | 2.0 | 5.0 | 0.00 | 0.00 | 0.00 | 41 | 1007.4 |
| 20260504224854 | 74 | 240 | 2.0 | 6.0 | 0.00 | 0.00 | 0.00 | 40 | 1007.4 |
| 20260504224353 | 74 | 240 | 2.0 | 11.0 | 0.00 | 0.00 | 0.00 | 40 | 1007.4 |
| 20260504223847 | 74 | 217 | 3.0 | 11.0 | 0.00 | 0.00 | 0.00 | 40 | 1007.3 |
| 20260504223628 | 74 | 221 | 2.0 | 10.0 | 0.00 | 0.00 | 0.00 | 40 | 1007.3 |
| 20260504223127 | 74 | 0 | 4.0 | 10.0 | 0.00 | 0.00 | 0.00 | 40 | 1007.4 |
| 20260504222347 | 75 | 179 | 2.0 | 4.0 | 0.00 | 0.00 | 0.00 | 39 | 1007.3 |
| 20260504221847 | 75 | 204 | 1.0 | 7.0 | 0.00 | 0.00 | 0.00 | 40 | 1007.4 |
| 20260504221346 | 75 | 217 | 2.0 | 7.0 | 0.00 | 0.00 | 0.00 | 38 | 1007.3 |
| 20260504220842 | 75 | 228 | 2.0 | 5.0 | 0.00 | 0.00 | 0.00 | 39 | 1007.3 |
| 20260504220343 | 75 | 18 | 3.0 | 6.0 | 0.00 | 0.00 | 0.00 | 38 | 1007.2 |
| 20260504215844 | 75 | 107 | 3.0 | 6.0 | 0.00 | 0.00 | 0.00 | 38 | 1007.2 |
| 20260504215341 | 76 | 247 | 1.0 | 5.0 | 0.00 | 0.00 | 0.00 | 39 | 1007.3 |
| 20260504214841 | 76 | 227 | 1.0 | 7.0 | 0.00 | 0.00 | 0.00 | 38 | 1007.3 |
| 20260504214341 | 76 | 254 | 3.0 | 11.0 | 0.00 | 0.00 | 0.00 | 38 | 1007.3 |
| 20260504213841 | 76 | 117 | 2.0 | 11.0 | 0.00 | 0.00 | 0.00 | 37 | 1007.2 |
| 20260504213340 | 75 | 216 | 1.0 | 6.0 | 0.00 | 0.00 | 0.00 | 38 | 1007.2 |
| 20260504212840 | 76 | 247 | 2.0 | 10.0 | 0.00 | 0.00 | 0.00 | 37 | 1007.2 |
| 20260504212339 | 76 | 206 | 3.0 | 10.0 | 0.00 | 0.00 | 0.00 | 36 | 1007.2 |
| 20260504211840 | 77 | 17 | 1.0 | 7.0 | 0.00 | 0.00 | 0.00 | 36 | 1007.2 |
| 20260504211340 | 77 | 281 | 2.0 | 7.0 | 0.00 | 0.00 | 0.00 | 36 | 1007.3 |
| 20260504210835 | 77 | 202 | 2.0 | 6.0 | 0.00 | 0.00 | 0.00 | 38 | 1007.2 |
| 20260504210335 | 76 | 171 | 2.0 | 6.0 | 0.00 | 0.00 | 0.00 | 37 | 1007.1 |
| 20260504205837 | 76 | 166 | 1.0 | 6.0 | 0.00 | 0.00 | 0.00 | 38 | 1007.2 |
| 20260504205333 | 77 | 278 | 2.0 | 6.0 | 0.00 | 0.00 | 0.00 | 36 | 1007.2 |
| 20260504205112 | 78 | 155 | 2.0 | 5.0 | 0.00 | 0.00 | 0.00 | 35 | 1007.2 |
| 20260504204322 | 78 | 197 | 1.0 | 6.0 | 0.00 | 0.00 | 0.00 | 36 | 1007.2 |
| 20260504203823 | 77 | 138 | 1.0 | 6.0 | 0.00 | 0.00 | 0.00 | 36 | 1007.2 |
| 20260504203323 | 77 | 212 | 2.0 | 6.0 | 0.00 | 0.00 | 0.00 | 35 | 1007.3 |
| 20260504202821 | 76 | 247 | 2.0 | 6.0 | 0.00 | 0.00 | 0.00 | 36 | 1007.5 |
| 20260504202322 | 77 | 203 | 2.0 | 6.0 | 0.00 | 0.00 | 0.00 | 35 | 1007.5 |
| 20260504201808 | 78 | 213 | 1.0 | 6.0 | 0.00 | 0.00 | 0.00 | 36 | 1007.6 |
| 20260504201308 | 78 | 220 | 1.0 | 4.0 | 0.00 | 0.00 | 0.00 | 35 | 1007.6 |
| 20260504200807 | 78 | 92 | 1.0 | 4.0 | 0.00 | 0.00 | 0.00 | 34 | 1007.6 |
| 20260504200307 | 77 | 238 | 1.0 | 7.0 | 0.00 | 0.00 | 0.00 | 35 | 1007.7 |
| 20260504195806 | 78 | 223 | 4.0 | 7.0 | 0.00 | 0.00 | 0.00 | 34 | 1007.8 |
| 20260504195306 | 78 | 245 | 3.0 | 7.0 | 0.00 | 0.00 | 0.00 | 32 | 1007.9 |
| 20260504194808 | 80 | 283 | 3.0 | 5.0 | 0.00 | 0.00 | 0.00 | 32 | 1008.0 |
| 20260504194306 | 78 | 166 | 1.0 | 7.0 | 0.00 | 0.00 | 0.00 | 33 | 1008.0 |
| 20260504193806 | 78 | 241 | 3.0 | 7.0 | 0.00 | 0.00 | 0.00 | 34 | 1008.1 |
| 20260504193307 | 78 | 327 | 1.0 | 6.0 | 0.00 | 0.00 | 0.00 | 32 | 1008.0 |
| 20260504192826 | 78 | 118 | 2.0 | 5.0 | 0.00 | 0.00 | 0.00 | 35 | 1008.2 |
| 20260504192818 | 78 | 230 | 1.0 | 6.0 | 0.00 | 0.00 | 0.00 | 35 | 1008.1 |
| 20260504191803 | 79 | 248 | 2.0 | 5.0 | 0.00 | 0.00 | 0.00 | 33 | 1008.3 |
| 20260504191543 | 79 | 251 | 1.0 | 9.0 | 0.00 | 0.00 | 0.00 | 35 | 1008.5 |
| 20260504190804 | 79 | 298 | 3.0 | 9.0 | 0.00 | 0.00 | 0.00 | 35 | 1008.7 |
| 20260504190544 | 78 | 58 | 1.0 | 7.0 | 0.00 | 0.00 | 0.00 | 34 | 1008.6 |
| 20260504185803 | 79 | 92 | 3.0 | 7.0 | 0.00 | 0.00 | 0.00 | 35 | 1008.8 |
| 20260504185304 | 79 | 230 | 3.0 | 7.0 | 0.00 | 0.00 | 0.00 | 35 | 1008.9 |
| 20260504185042 | 78 | 219 | 4.0 | 7.0 | 0.00 | 0.00 | 0.00 | 34 | 1008.9 |
| 20260504184302 | 78 | 221 | 3.0 | 5.0 | 0.00 | 0.00 | 0.00 | 33 | 1008.9 |
| 20260504183802 | 78 | 233 | 2.0 | 6.0 | 0.00 | 0.00 | 0.00 | 36 | 1009.0 |
| 20260504183541 | 78 | 107 | 1.0 | 10.0 | 0.00 | 0.00 | 0.00 | 36 | 1009.1 |
| 20260504182803 | 79 | 214 | 2.0 | 10.0 | 0.00 | 0.00 | 0.00 | 34 | 1009.2 |
| 20260504182304 | 79 | 234 | 3.0 | 9.0 | 0.00 | 0.00 | 0.00 | 34 | 1009.2 |
| 20260504181803 | 78 | 192 | 2.0 | 7.0 | 0.00 | 0.00 | 0.00 | 35 | 1009.3 |
| 20260504181304 | 78 | 258 | 2.0 | 7.0 | 0.00 | 0.00 | 0.00 | 34 | 1009.4 |
| 20260504180801 | 78 | 7 | 2.0 | 7.0 | 0.00 | 0.00 | 0.00 | 34 | 1009.5 |
| 20260504180301 | 78 | 206 | 3.0 | 7.0 | 0.00 | 0.00 | 0.00 | 33 | 1009.7 |
| 20260504180044 | 78 | 321 | 1.0 | 6.0 | 0.00 | 0.00 | 0.00 | 35 | 1009.6 |
| 20260504175543 | 77 | 329 | 1.0 | 6.0 | 0.00 | 0.00 | 0.00 | 36 | 1009.6 |
| 20260504174758 | 77 | 268 | 2.0 | 6.0 | 0.00 | 0.00 | 0.00 | 35 | 1009.8 |
| 20260504174258 | 76 | 188 | 3.0 | 6.0 | 0.00 | 0.00 | 0.00 | 36 | 1009.9 |
| 20260504173756 | 75 | 219 | 2.0 | 6.0 | 0.00 | 0.00 | 0.00 | 35 | 1010.0 |
| 20260504173252 | 77 | 210 | 3.0 | 9.0 | 0.00 | 0.00 | 0.00 | 35 | 1009.9 |
| 20260504172753 | 78 | 317 | 2.0 | 9.0 | 0.00 | 0.00 | 0.00 | 35 | 1010.0 |
| 20260504172236 | 77 | 204 | 2.0 | 5.0 | 0.00 | 0.00 | 0.00 | 33 | 1010.1 |
| 20260504172011 | 77 | 204 | 1.0 | 4.0 | 0.00 | 0.00 | 0.00 | 36 | 1010.2 |
| 20260504171231 | 76 | 107 | 2.0 | 5.0 | 0.00 | 0.00 | 0.00 | 37 | 1010.2 |
| 20260504170733 | 77 | 268 | 2.0 | 5.0 | 0.00 | 0.00 | 0.00 | 35 | 1010.4 |
| 20260504170231 | 77 | 266 | 2.0 | 4.0 | 0.00 | 0.00 | 0.00 | 36 | 1010.4 |
| 20260504160202 | 76 | 262 | 1.0 | 3.0 | 0.00 | 0.00 | 0.00 | 35 | 1011.0 |
| 20260504150700 | 73 | 258 | 1.0 | 5.0 | 0.00 | 0.00 | 0.00 | 38 | 1011.7 |
| 20260504150201 | 73 | 214 | 2.0 | 4.0 | 0.00 | 0.00 | 0.00 | 37 | 1011.8 |
| 20260504141159 | 69 | 142 | 1.0 | 4.0 | 0.00 | 0.00 | 0.00 | 41 | 1011.7 |
| 20260504140659 | 69 | 111 | 1.0 | 4.0 | 0.00 | 0.00 | 0.00 | 41 | 1011.7 |
| 20260504140200 | 69 | 90 | 1.0 | 4.0 | 0.00 | 0.00 | 0.00 | 41 | 1011.8 |
| 20260504130151 | 63 | 272 | 1.0 | 3.0 | 0.00 | 0.00 | 0.00 | 51 | 1012.4 |
| 20260504120140 | 54 | 195 | 1.0 | 3.0 | 0.00 | 0.00 | 0.00 | 62 | 1012.8 |
| 20260504110630 | 48 | 338 | 0.0 | 0.0 | 0.00 | 0.00 | 0.00 | 77 | 1012.8 |
| 20260504110133 | 47 | 338 | 0.0 | 0.0 | 0.00 | 0.00 | 0.00 | 76 | 1012.7 |
| 20260504100105 | 47 | 338 | 0.0 | 0.0 | 0.00 | 0.00 | 0.00 | 72 | 1012.6 |
| 20260504081551 | 47 | 338 | 0.0 | 2.0 | 0.00 | 0.00 | 0.00 | 74 | 1013.0 |
| 20260504081051 | 46 | 338 | 0.0 | 2.0 | 0.00 | 0.00 | 0.00 | 80 | 1013.0 |
| 20260504080829 | 45 | 338 | 0.0 | 2.0 | 0.00 | 0.00 | 0.00 | 81 | 1012.9 |